Хоби

Грузия     42°19′16″N   41°54′19″E
темп.,
°C
ветер,
м/с
пор.,
м/с
влажн.,
%
обл.,
%
осадки,
мм/ч
давл.,
гПа
погр.,
м
16 июня, ср
ср1601:00+18ююз119646 0.3 101011
04:00+19ю1292100 0.7 101072
07:00+19юз1290100 0.0 1010144
10:00+22ююз228165 0.0 1009498
13:00+26зюз326273 0.1 10071120
16:00+27з32598 0.1 10051025
19:00+23з447010 0.1 1005629
22:00+18юз22930 0.4 100532
17 июня, чт
чт1701:00+18юз269877 0.4 1009196
04:00+19ююз1197100 1.4 101149
07:00+19ююз139596 0.7 101394
10:00+22юз238140 2.3 1014645
13:00+25з45645 2.3 10151270
16:00+25з55542 2.9 10151379
19:00+23з446718 0.0 1016931
22:00+18з22920 0.0 101818
18 июня, пт
пт1801:00+16ю11942 0.0 101711
04:00+16ссз00951 0.0 101711
07:00+17в11890 0.0 101690
10:00+23ссв11632 0.0 1015807
13:00+27зсз33500 0.0 10141347
16:00+26з54490 0.0 10141145
19:00+23з34580 0.0 1014645
22:00+18зюз11870 0.0 101513
19 июня, сб
сб1901:00+17вюв00920 0.0 101511
04:00+16в11935 0.0 101411
07:00+18вюв00855 0.0 101386
10:00+25з11606 0.0 1012653
13:00+30зюз33447 0.0 10101014
16:00+27зюз66571 0.0 1009735
19:00+24зюз44670 0.0 1010621
22:00+19юз11930 0.1 101211
20 июня, вс
вс2001:00+17ю01950 0.0 101211
04:00+17ю11960 0.0 101211
07:00+18в11900 0.0 101279
10:00+25ююв01590 0.0 1011631
13:00+31зюз43410 0.0 1010751
16:00+27зюз65560 0.0 1010695
19:00+24зюз44670 0.0 1011570
22:00+19юз11930 0.0 101315